Find Starlink 37680

NORAD ID: 69240 Int'l Des: 2026-117 Owner: SPXS Country: US Constellation: starlink operational
LEOCIRCULAR

現在のビュー

3D地球を読み込み中...

About Starlink 37680

Starlink 37680 (NORAD 69240) is a starlink constellation satellite (v2 mini) launched May 29, 2026 by SPXS of US. It operates in LEO, CIRCULAR orbit with a mass of 575.00 kg.

Starlink 37680について

説明を読み込み中...

次回通過

Passes for default location (London). Set your location on the main map for personalized predictions.

高度履歴

Loading altitude history...

軌道要素

1 69240U 26117C 26193.76613081 .00022932 00000-0 70657-3 0 9997
2 69240 53.1593 119.5551 0001248 75.6331 284.4810 15.33543143 6966
Epoch: Jul 12, 2026 • Age: 5 hours

現在のステータス

高度 465.4 km
遠地点 / 近地点 N/A
速度 7.64 km/s
衛星直下点 16.14°N, 1.42°W
打ち上げ日 May 29, 2026
運用期間 0.1 years
タイプ internet

技術仕様

分類 Payload
質量 575.00 kg
乾燥質量 530.00 kg
総質量 575.00 kg
長さ 0.30 m
直径 4.10 m
スパン 29.00 m
形状 Box + pan
製造者 SPXS
バスタイプ Starlink V2MO
フェーズステータス In Orbit
所有者/国 SPXS/US

Most Searched